Simultaneous Nadir Overpasses (SNOs) Predictions

Prediction of SNOs between METOP-B and TERRA Satellite Orbit:

Table of predicted SNOs for the next 14.0 days since TLE Epoch: 4/9/2016
Index Date (METOP-B) Time (METOP-B) Lat,Lon (METOP-B) SZA (METOP-B ) Date (TERRA) Time (TERRA) Lat,Lon (TERRA) SZA (TERRA ) Distance(km) Time Diff (sec)
1 04/11/2016 05:19:28 81.32, 147.42 75.64 04/11/2016 05:20:27 81.31, 147.52 75.68 1.62 59
2 04/11/2016 06:10:08 -81.32, -44.77 104.32 04/11/2016 06:09:54 -81.31, -44.87 104.34 1.82 14
3 04/14/2016 00:53:50 81.32,-145.82 74.69 04/14/2016 00:54:41 81.32,-145.89 74.70 1.19 51
4 04/14/2016 01:44:31 -81.32, 21.62 105.32 04/14/2016 01:44:08 -81.32, 21.74 105.31 1.97 23
5 04/16/2016 20:28:13 81.32, -79.48 73.70 04/16/2016 20:28:55 81.32, -79.44 73.73 0.89 42
6 04/16/2016 21:18:53 -81.32, 88.38 106.25 04/16/2016 21:18:22 -81.32, 88.20 106.29 2.99 31
7 04/19/2016 16:02:35 81.32, -13.17 72.74 04/19/2016 16:03:08 81.32, -13.13 72.76 0.72 33
8 04/19/2016 16:53:16 -81.32, 154.33 107.26 04/19/2016 16:52:35 -81.32, 154.53 107.26 3.35 41
9 04/22/2016 11:36:57 81.32, 53.52 71.84 04/22/2016 11:37:21 81.32, 53.43 71.84 1.52 24




NCC Satellite Simultaneous Nadir Overpasses (SNOs) Prediction Service
